Temperature
16 16 17 17 17 17 16 16 15 14 14 13 13 12 12 12 11 11 11 10 10 9 9 9 8 8 7 7 7 6 6 6 6 5 5 6 6 6 7 7 7 7 8
16 16 16 16 16 16 15 15 15 14 13 13 12 12 11 11 11 10 10 10 9 9 9 8 8 8 7 7 6 6 6 5 5 5 4 4 4 6 6 7 7 7 7
15 15 16 15 15 15 15 14 14 14 13 13 12 12 11 11 11 10 10 9 9 8 8 8 7 7 7 6 6 6 5 5 5 4 4 3 3 4 4 5 5 5 5
15 15 15 15 14 14 14 14 13 13 13 12 12 11 11 11 10 10 9 9 9 8 8 7 7 7 6 6 6 6 5 5 4 4 4 4 3 2 2 3 4 3 3
14 14 14 13 13 13 13 13 13 12 12 12 12 11 11 10 10 10 10 9 9 8 8 7 7 7 6 6 6 5 5 4 4 4 4 3 3 2 1 0 2 3 3
13 13 13 13 13 12 12 12 12 12 11 11 11 10 10 10 10 9 9 9 9 8 8 7 7 7 6 6 6 5 5 4 4 4 3 3 2 2 2 0 1 2 3
13 13 12 12 12 12 12 11 11 11 11 10 10 10 9 9 9 8 8 8 8 8 7 7 7 7 6 6 6 5 5 4 4 3 3 3 3 2 2 1 0 0 2
12 12 12 12 11 11 11 11 11 10 10 10 9 9 8 8 8 7 7 7 7 7 7 6 6 6 6 6 5 5 5 4 4 4 3 3 3 2 2 1 1 -1 -1
12 12 11 11 11 11 10 10 10 10 9 9 8 8 8 7 7 7 6 6 6 6 6 6 6 6 5 5 5 5 4 4 4 3 3 2 2 2 1 1 0 -1 -3
12 11 11 11 10 10 10 9 9 9 8 8 7 7 7 6 6 6 6 6 6 5 5 5 5 5 5 5 4 4 4 3 3 3 2 2 2 1 1 0 -0 -1 -2
11 11 11 10 10 9 9 9 8 8 7 7 7 6 6 6 6 6 5 5 5 5 5 5 5 4 4 4 3 3 3 2 2 2 1 1 1 0 -0 -1 -1 -2 -3
11 10 10 10 9 9 8 8 7 7 6 6 6 6 5 5 5 5 5 5 5 5 4 4 4 4 3 3 3 2 2 1 1 1 0 0 -0 -1 -1 -1 -2 -2 -3
10 10 10 9 9 8 7 7 6 6 6 5 5 5 5 5 5 5 5 5 4 4 4 3 3 3 2 2 1 1 1 0 0 -0 -1 -1 -1 -2 -2 -2 -2 -3 -3
10 9 9 8 8 7 6 6 5 5 5 5 5 5 5 5 4 4 4 4 4 3 3 2 2 1 1 1 0 -0 -0 -0 -1 -1 -1 -2 -2 -2 -2 -2 -3 -3 -3
9 9 8 7 6 6 5 5 5 4 4 4 4 4 4 4 4 4 3 3 3 2 2 1 1 1 0 -0 -1 -1 -1 -1 -2 -2 -2 -2 -2 -2 -3 -3 -3 -3 -4
8 7 7 6 5 5 4 4 4 4 4 4 4 4 3 3 3 3 3 2 2 1 1 0 0 -0 -1 -1 -2 -2 -3 -3 -3 -3 -3 -3 -3 -3 -3 -3 -3 -3 -3
7 6 6 5 5 4 4 4 4 4 3 3 3 3 3 3 2 2 2 1 1 0 -0 -0 -1 -1 -1 -2 -2 -3 -3 -3 -3 -3 -3 -3 -3 -3 -3 -3 -3 -3 -3
6 6 5 5 4 4 3 3 3 3 3 3 3 3 2 2 1 1 1 0 -0 -1 -1 -2 -2 -2 -2 -3 -3 -4 -4 -4 -4 -4 -4 -4 -4 -4 -4 -4 -4 -4 -4
5 5 4 4 4 3 3 3 3 3 3 2 2 2 1 1 1 1 0 -1 -1 -2 -2 -3 -3 -3 -3 -3 -4 -4 -4 -4 -4 -4 -4 -4 -4 -4 -4 -5 -5 -5 -5
5 4 4 4 3 3 3 3 3 2 2 2 2 1 1 0 -0 -0 -1 -1 -2 -3 -3 -3 -3 -4 -4 -4 -5 -5 -5 -4 -4 -4 -4 -4 -4 -4 -4 -5 -5 -5 -5
4 4 3 3 3 3 2 2 2 2 1 1 1 1 0 -0 -1 -1 -2 -3 -3 -4 -4 -4 -5 -5 -5 -5 -5 -5 -5 -4 -4 -4 -4 -4 -4 -4 -4 -5 -5 -5 -5
4 3 3 3 3 3 2 2 2 1 1 1 1 0 -0 -1 -1 -2 -2 -3 -4 -5 -5 -6 -6 -6 -5 -5 -5 -5 -4 -4 -4 -4 -4 -4 -4 -4 -4 -5 -5 -5 -5
3 3 3 3 3 2 2 1 1 1 1 0 0 -0 -1 -1 -2 -3 -3 -4 -5 -6 -6 -7 -7 -6 -6 -5 -5 -5 -5 -4 -4 -4 -4 -4 -4 -4 -5 -5 -5 -5 -5
3 3 2 2 2 2 2 1 1 0 -0 -0 -1 -1 -1 -2 -3 -4 -4 -5 -6 -6 -7 -7 -7 -6 -6 -6 -5 -5 -4 -4 -4 -4 -4 -4 -4 -5 -5 -5 -5 -6 -6
3 2 2 2 2 1 1 1 0 -0 -1 -1 -1 -2 -2 -3 -4 -4 -5 -6 -6 -7 -7 -6 -6 -6 -6 -6 -5 -5 -4 -4 -4 -4 -4 -4 -5 -5 -5 -5 -5 -6 -6
2 2 2 1 1 1 1 0 -0 -1 -2 -2 -2 -3 -4 -4 -5 -6 -6 -6 -7 -6 -7 -6 -6 -6 -6 -6 -5 -5 -5 -5 -4 -4 -4 -5 -5 -5 -5 -5 -6 -6 -6
Wind_Speed
8 10 11 10 8 5 1 3 5 6 6 4 4 4 6 5 5 11 15 18 19 19 18 15 12 12 9 12 11 8 8 8 4 4 7 8 12 15 14 15 16 19 24
11 13 12 12 10 7 4 1 2 4 6 5 4 3 3 4 5 9 14 18 19 19 18 15 11 10 9 10 10 9 6 6 6 6 4 6 6 7 12 11 12 13 15
9 10 11 11 10 10 7 3 1 2 4 5 3 3 2 1 2 4 6 12 17 18 19 18 15 11 10 12 13 13 11 10 7 9 7 6 7 5 5 7 9 10 9
7 8 9 9 9 8 7 6 4 3 2 4 4 5 5 5 6 4 5 7 14 17 19 19 17 12 10 13 13 13 12 11 11 7 11 12 7 6 6 4 5 7 9
6 7 7 7 7 7 7 6 6 5 3 2 4 5 6 6 5 4 6 7 7 12 15 16 14 12 10 13 13 12 13 12 13 10 7 11 11 10 10 13 8 6 8
5 6 6 6 7 7 7 7 7 6 3 1 2 4 6 7 7 7 7 6 5 6 10 13 12 11 10 13 14 13 13 14 15 13 11 9 8 9 12 17 13 12 8
2 4 5 7 7 8 7 7 7 6 4 2 1 3 5 6 7 8 7 7 5 5 8 7 8 9 10 12 11 12 14 15 16 16 15 14 15 10 10 15 16 12 7
1 1 3 4 5 6 6 6 6 5 5 4 4 3 4 4 5 6 6 6 6 7 8 6 8 9 10 11 10 11 14 13 15 18 17 15 15 14 15 13 13 14 12
1 1 3 4 4 5 5 5 6 6 6 6 6 6 5 4 6 6 6 6 7 7 8 7 9 9 9 11 11 11 14 13 14 16 17 16 15 14 14 14 14 14 15
1 1 2 3 4 4 5 5 5 5 5 6 6 5 6 6 6 6 8 8 8 8 9 9 9 9 10 10 11 11 13 14 14 13 15 17 15 14 13 14 14 15 16
1 1 2 3 4 5 5 5 6 6 6 7 6 7 7 7 7 7 8 8 8 9 9 10 10 10 11 10 10 12 12 14 15 14 15 18 15 15 14 13 14 16 16
2 2 2 3 4 5 6 6 6 6 6 6 6 7 7 8 8 8 9 9 9 9 10 10 10 11 12 11 11 14 13 14 16 15 15 17 14 17 15 14 16 16 16
3 2 2 4 5 6 6 6 7 7 7 6 7 8 8 9 9 10 10 10 10 10 10 10 11 12 12 12 12 13 14 15 15 15 15 16 15 18 15 16 16 15 16
2 1 3 4 5 5 5 6 7 6 7 7 7 8 9 9 10 10 10 10 10 11 12 12 12 13 13 13 13 13 15 15 15 15 15 16 16 18 18 16 17 15 16
0 2 3 4 5 5 6 6 7 7 7 8 9 9 10 10 10 10 11 11 11 12 12 13 14 13 12 12 13 13 14 15 15 15 15 17 20 23 20 16 14 15 15
3 4 5 5 5 5 6 7 7 8 8 9 10 10 10 10 11 12 12 12 12 12 12 13 14 15 13 22 27 22 14 13 14 15 14 15 19 23 28 30 27 22 18
4 5 5 5 5 6 6 7 8 8 9 10 10 11 11 11 12 13 13 14 14 13 13 13 14 16 18 27 29 29 20 15 13 13 13 12 13 19 14 20 26 25 28
4 5 5 5 5 5 6 8 8 9 9 10 11 11 11 12 13 13 14 14 13 13 14 14 15 16 19 28 30 29 19 14 13 13 13 14 13 13 14 13 14 15 16
3 4 5 5 5 7 8 8 9 9 10 11 11 11 11 13 14 15 15 14 14 15 14 14 15 17 20 27 29 28 13 12 13 13 13 14 13 19 23 15 14 15 14
3 4 5 5 6 8 7 8 10 10 11 12 12 12 12 13 15 16 16 15 14 16 15 15 14 16 18 25 28 27 12 12 12 11 11 18 18 20 22 14 13 15 12
4 5 6 7 8 8 8 9 11 12 12 12 12 12 12 12 14 15 14 14 15 15 15 17 15 15 18 22 26 26 13 11 13 11 9 9 19 21 21 18 12 16 13
5 6 6 8 9 8 8 10 12 13 12 12 12 13 12 12 13 14 15 14 14 16 16 16 16 12 13 19 21 26 24 21 13 12 10 11 19 21 21 16 16 19 16
6 6 7 9 10 9 9 11 13 13 13 13 13 13 13 11 11 13 15 15 12 13 15 14 15 14 11 13 24 26 26 25 16 12 18 20 21 19 14 16 18 14 8
7 6 8 9 12 11 10 11 13 12 13 14 14 13 13 14 12 10 11 12 13 14 15 15 15 15 13 11 10 12 14 17 15 13 15 19 19 14 13 12 10 6 6
7 7 8 10 13 13 12 12 12 12 13 14 14 13 12 13 14 12 10 13 12 15 18 15 15 16 16 17 25 21 14 11 12 13 8 7 6 6 6 6 6 6 6
8 9 10 11 13 13 13 13 11 10 12 13 13 11 11 12 12 14 15 19 21 27 28 26 24 18 23 29 29 28 27 26 23 16 8 7 7 7 7 7 6 5 5
Wind_Direction
1 16 25 29 39 47 91 191 191 185 161 158 178 202 229 226 228 230 229 225 223 220 219 230 226 214 220 229 224 224 231 238 223 258 280 267 248 246 246 243 244 245 243
16 18 23 29 32 30 26 39 196 185 181 174 161 175 190 216 222 228 231 229 227 225 226 228 230 219 224 230 225 215 222 228 191 198 253 296 297 250 241 238 238 242 241
25 17 20 22 25 24 14 25 65 175 183 167 136 113 90 347 286 244 240 235 232 230 230 230 230 225 221 232 230 221 221 234 217 202 205 235 254 298 262 237 235 235 233
35 31 25 21 20 14 15 33 51 80 129 155 166 187 213 239 243 235 239 239 232 232 232 233 232 230 227 233 234 226 224 226 235 217 223 232 225 247 291 259 246 240 234
48 40 29 24 23 18 25 34 52 60 81 142 182 202 235 250 266 267 265 259 245 238 237 235 235 235 233 235 237 231 224 224 233 227 216 233 242 236 249 270 261 244 231
54 40 30 31 26 22 26 30 44 45 49 100 183 214 243 263 280 280 277 274 264 250 242 239 238 239 238 239 239 237 231 231 233 235 227 219 219 221 229 251 261 262 244
71 34 30 27 20 17 15 16 27 23 18 19 302 253 253 260 265 276 279 283 282 271 257 240 238 240 241 242 240 238 238 236 235 236 237 235 236 229 230 245 259 261 257
163 29 32 29 12 6 6 5 6 358 353 351 330 303 278 267 267 270 270 272 270 272 270 252 243 244 244 245 241 240 242 241 239 240 238 240 240 235 233 238 250 266 267
217 28 23 21 6 355 351 349 347 342 341 341 335 329 320 299 289 289 279 272 270 275 274 266 260 254 248 247 244 244 244 243 241 242 241 242 243 239 237 236 233 243 265
199 34 15 2 352 344 336 344 347 334 331 337 335 328 325 317 305 300 296 290 286 282 283 279 271 265 259 253 248 249 249 246 245 243 243 243 244 243 239 237 235 232 242
174 47 0 346 342 342 346 346 345 342 338 336 332 330 324 319 312 300 293 291 290 289 284 281 278 274 270 263 257 255 253 251 252 247 245 246 242 244 242 238 237 236 235
119 74 4 349 350 348 346 346 343 340 329 325 324 319 313 312 309 301 296 294 291 288 283 281 279 277 274 268 263 265 261 256 256 252 249 250 248 244 243 241 239 238 234
99 56 11 353 344 339 339 339 338 331 324 324 321 316 313 311 305 299 297 296 293 291 288 284 281 279 276 272 268 266 266 262 259 256 251 252 248 249 246 241 241 240 239
104 30 346 333 329 329 328 327 323 319 318 318 314 309 306 302 297 295 293 292 291 291 289 286 283 280 277 274 272 269 268 266 262 257 254 253 248 249 248 246 243 240 240
326 321 316 314 319 324 322 319 314 314 315 313 308 301 298 297 296 295 293 292 289 288 286 287 287 283 280 276 273 270 266 264 264 260 254 252 252 252 252 248 244 238 239
269 298 308 312 314 313 310 311 309 308 309 305 299 297 298 299 298 297 297 295 292 290 287 287 288 288 287 290 293 292 280 270 266 265 260 255 259 262 264 262 255 241 234
274 292 297 295 296 295 297 298 296 301 303 299 297 297 297 298 298 299 299 296 295 291 290 288 287 288 289 295 296 295 292 283 278 273 270 268 263 266 256 263 267 264 254
275 287 289 290 291 289 292 291 293 297 298 297 296 296 297 297 299 299 297 296 294 293 292 293 292 291 293 298 300 300 296 287 281 276 272 271 268 262 262 255 254 255 258
257 264 268 274 283 289 290 296 298 298 297 296 295 296 296 298 301 301 300 299 299 298 295 294 294 294 296 299 301 299 290 285 281 276 270 270 267 270 272 265 257 255 253
275 276 284 287 288 287 293 297 296 298 297 295 295 295 295 296 298 299 300 300 298 298 299 298 294 292 293 297 301 300 291 288 286 279 269 272 273 274 273 264 258 257 253
291 290 291 287 283 288 295 292 293 292 291 292 294 295 293 292 294 296 297 299 300 299 299 298 296 292 292 297 299 300 296 286 286 285 280 269 277 279 278 273 261 259 254
302 298 291 287 288 289 289 289 291 291 293 295 297 297 296 295 300 299 300 299 299 301 302 302 301 295 292 294 297 298 298 298 293 289 285 277 280 279 278 276 270 269 264
287 284 281 287 291 288 282 286 292 296 299 300 299 300 300 296 292 294 299 303 301 301 303 303 302 301 295 293 298 300 300 299 296 286 285 287 288 286 283 279 278 279 268
284 284 289 290 294 293 287 282 290 296 298 299 302 302 303 304 300 293 294 298 301 301 301 301 301 302 301 297 295 292 294 294 293 290 287 289 288 284 277 274 276 266 254
282 280 282 286 289 293 291 288 289 294 296 298 299 301 300 301 304 300 294 297 291 292 299 301 301 303 303 301 303 304 302 299 292 293 280 276 272 262 258 256 253 248 244
281 285 285 285 289 292 292 291 287 286 291 299 301 301 303 303 303 305 304 299 300 302 303 302 301 301 299 303 306 307 308 309 307 307 292 283 271 265 260 253 248 238 229
Height
1521 1520 1518 1517 1516 1515 1515 1516 1517 1518 1520 1521 1523 1525 1526 1528 1529 1530 1531 1531 1532 1532 1531 1531 1531 1530 1529 1529 1529 1528 1527 1525 1526 1522 1517 1515 1514 1511 1510 1511 1511 1511 1512
1523 1522 1521 1519 1518 1517 1517 1517 1517 1518 1519 1520 1521 1522 1523 1524 1525 1526 1526 1526 1525 1525 1524 1524 1523 1522 1521 1521 1520 1520 1518 1517 1518 1516 1512 1505 1500 1498 1499 1499 1498 1499 1500
1524 1524 1523 1522 1521 1520 1519 1518 1518 1518 1519 1519 1520 1520 1520 1520 1521 1521 1521 1521 1520 1519 1518 1516 1515 1514 1513 1511 1511 1511 1509 1508 1508 1508 1507 1502 1492 1490 1487 1487 1488 1488 1489
1526 1526 1525 1524 1523 1523 1522 1521 1520 1520 1520 1520 1520 1519 1519 1518 1518 1517 1515 1515 1514 1512 1511 1509 1508 1506 1504 1503 1502 1501 1500 1499 1497 1496 1495 1494 1491 1488 1479 1476 1477 1477 1477
1527 1527 1527 1526 1526 1525 1524 1523 1522 1522 1521 1520 1520 1519 1518 1517 1515 1514 1512 1510 1508 1506 1504 1502 1500 1498 1496 1494 1493 1492 1490 1488 1487 1486 1484 1483 1481 1478 1475 1465 1464 1465 1464
1528 1528 1528 1528 1527 1527 1526 1525 1524 1523 1522 1520 1519 1518 1516 1514 1512 1510 1508 1506 1504 1502 1499 1497 1494 1492 1489 1487 1485 1483 1481 1479 1477 1476 1474 1472 1470 1467 1465 1459 1453 1452 1451
1528 1528 1528 1528 1528 1527 1526 1525 1524 1523 1521 1519 1518 1516 1513 1511 1509 1506 1504 1501 1499 1496 1494 1491 1488 1486 1483 1480 1478 1475 1472 1470 1467 1465 1463 1460 1458 1457 1455 1452 1445 1441 1439
1528 1528 1528 1528 1528 1527 1526 1525 1523 1521 1519 1517 1515 1513 1510 1507 1505 1502 1499 1496 1494 1491 1488 1485 1482 1479 1476 1473 1470 1466 1463 1460 1457 1454 1452 1449 1446 1446 1443 1441 1439 1433 1427
1526 1527 1527 1527 1527 1526 1525 1523 1521 1519 1517 1514 1512 1509 1506 1503 1500 1498 1495 1492 1489 1485 1482 1479 1476 1472 1469 1465 1461 1457 1454 1450 1447 1443 1441 1438 1435 1434 1431 1430 1429 1428 1419
1525 1525 1526 1526 1525 1524 1523 1521 1518 1516 1513 1511 1508 1505 1502 1499 1496 1493 1490 1486 1483 1479 1476 1472 1468 1464 1461 1457 1452 1447 1444 1440 1435 1432 1429 1425 1423 1421 1419 1418 1416 1415 1411
1522 1523 1524 1524 1523 1522 1520 1518 1515 1512 1509 1507 1504 1501 1498 1495 1491 1488 1484 1480 1476 1472 1468 1464 1459 1455 1451 1447 1442 1437 1433 1428 1424 1421 1417 1413 1411 1409 1406 1405 1403 1402 1400
1520 1521 1522 1522 1521 1519 1517 1514 1511 1508 1505 1503 1500 1497 1494 1490 1486 1482 1478 1474 1469 1464 1460 1454 1449 1445 1440 1436 1431 1425 1421 1416 1411 1408 1405 1401 1399 1396 1394 1392 1390 1388 1387
1519 1520 1520 1519 1518 1515 1513 1510 1507 1504 1502 1499 1495 1492 1488 1484 1480 1475 1470 1465 1460 1455 1450 1445 1439 1434 1429 1424 1419 1414 1409 1404 1399 1396 1392 1389 1387 1384 1382 1380 1377 1376 1375
1517 1518 1517 1516 1514 1512 1509 1506 1504 1501 1498 1494 1491 1487 1482 1477 1472 1467 1462 1457 1451 1445 1440 1434 1428 1423 1417 1412 1407 1402 1396 1391 1387 1384 1381 1378 1375 1372 1370 1368 1365 1364 1363
1515 1515 1514 1512 1510 1508 1505 1503 1500 1497 1493 1489 1485 1480 1476 1470 1465 1459 1454 1448 1442 1436 1430 1424 1417 1412 1406 1401 1396 1390 1384 1379 1375 1372 1369 1367 1364 1361 1359 1356 1353 1353 1352
1513 1512 1511 1509 1506 1504 1501 1499 1496 1492 1488 1484 1479 1474 1468 1463 1457 1451 1445 1439 1433 1426 1420 1413 1407 1401 1395 1391 1386 1381 1374 1369 1364 1361 1358 1355 1353 1350 1348 1346 1344 1343 1340
1510 1509 1507 1505 1503 1500 1498 1494 1491 1487 1483 1478 1473 1467 1461 1455 1449 1443 1436 1430 1423 1416 1409 1403 1397 1390 1384 1380 1374 1370 1365 1360 1355 1351 1348 1344 1342 1339 1336 1334 1333 1332 1331
1507 1505 1503 1501 1499 1497 1494 1490 1486 1482 1477 1472 1466 1461 1454 1447 1441 1434 1427 1420 1413 1406 1399 1392 1386 1379 1373 1369 1364 1359 1355 1350 1346 1342 1339 1335 1331 1329 1326 1323 1321 1319 1319
1503 1502 1500 1498 1495 1493 1489 1485 1481 1476 1471 1465 1459 1453 1447 1440 1433 1426 1419 1412 1404 1396 1390 1383 1376 1369 1363 1359 1354 1350 1344 1340 1336 1333 1330 1326 1323 1320 1318 1315 1312 1309 1308
1500 1498 1496 1494 1492 1488 1484 1480 1475 1470 1464 1458 1452 1446 1440 1433 1425 1418 1410 1403 1396 1388 1381 1373 1367 1361 1354 1350 1346 1342 1337 1332 1328 1324 1321 1319 1315 1312 1310 1307 1304 1301 1300
1496 1495 1493 1490 1487 1483 1479 1474 1469 1463 1457 1451 1445 1439 1432 1426 1418 1410 1402 1395 1387 1379 1371 1364 1357 1352 1347 1342 1339 1335 1331 1326 1321 1317 1313 1310 1308 1305 1302 1300 1297 1295 1294
1493 1491 1488 1486 1483 1479 1473 1467 1462 1457 1450 1443 1437 1430 1424 1417 1410 1402 1394 1387 1379 1371 1362 1355 1348 1344 1340 1336 1331 1328 1325 1320 1315 1310 1307 1303 1300 1297 1295 1293 1290 1289 1288
1489 1487 1484 1480 1477 1473 1468 1461 1455 1449 1442 1435 1429 1422 1415 1409 1402 1394 1386 1378 1371 1364 1356 1349 1342 1336 1332 1328 1325 1321 1317 1313 1309 1304 1300 1296 1293 1290 1288 1286 1284 1283 1281
1485 1482 1479 1474 1470 1466 1462 1456 1449 1442 1435 1427 1420 1414 1406 1399 1392 1386 1379 1372 1364 1357 1351 1344 1337 1331 1326 1321 1317 1313 1309 1305 1301 1296 1292 1289 1286 1283 1281 1278 1277 1276 1275
1480 1477 1473 1468 1463 1459 1454 1448 1442 1435 1427 1420 1413 1406 1399 1391 1384 1377 1372 1365 1358 1354 1347 1340 1334 1327 1320 1315 1312 1308 1303 1299 1294 1289 1285 1281 1278 1276 1273 1272 1270 1269 1269
1475 1471 1467 1462 1457 1451 1446 1440 1435 1428 1420 1412 1405 1398 1391 1384 1377 1369 1361 1356 1352 1346 1341 1335 1329 1321 1316 1310 1306 1301 1297 1292 1288 1283 1278 1275 1272 1269 1267 1266 1265 1264 1264